• MPC Preparation (Info)

  • MPEC 2014-Q24 : 2014 QB33

    The following Minor Planet Electronic Circular may be linked-to from your own Web pages, but must not otherwise be redistributed electronically.

    A form allowing access to any MPEC is at the bottom of this page.


    Read MPEC 2014-Q23 Read MPEC 2014-Q25


    M.P.E.C. 2014-Q24                                Issued 2014 Aug. 22, 14:13 UT
    
         The Minor Planet Electronic Circulars contain information on unusual
             minor planets and routine data on comets.  They are published
       on behalf of Commission 20 of the International Astronomical Union by the
              Minor Planet Center, Smithsonian Astrophysical Observatory,
                              Cambridge, MA 02138, U.S.A.
    
                 Prepared using the Tamkin Foundation Computer Network
    
                                  MPC@CFA.HARVARD.EDU
                URL https://www.minorplanetcenter.net/    ISSN 1523-6714
    
                                       2014 QB33
    
    Observations:
         K14Q33B* C2014 08 20.37737 21 47 31.291-04 08 06.68         21.0 wLEQ024F51
         K14Q33B  C2014 08 20.37945 21 47 32.257-04 08 03.26         21.1 wLEQ024F51
         K14Q33B  C2014 08 20.39012 21 47 37.141-04 07 45.49         21.0 wLEQ024F51
         K14Q33B  C2014 08 20.39219 21 47 38.100-04 07 42.22         21.2 wLEQ024F51
         K14Q33B  C2014 08 20.40288 21 47 43.036-04 07 23.99         21.0 wLEQ024F51
         K14Q33B  C2014 08 20.40495 21 47 43.989-04 07 20.61         21.4 wLEQ024F51
         K14Q33B  C2014 08 20.41569 21 47 48.933-04 07 02.67         21.1 wLEQ024F51
         K14Q33B  C2014 08 20.41777 21 47 49.909-04 06 59.22         21.1 wLEQ024F51
         K14Q33B  C2014 08 21.35621 21 55 53.220-03 40 15.62         21.0 wLEQ024F51
         K14Q33B  C2014 08 21.36904 21 55 59.427-03 39 53.86         21.0 wLEQ024F51
         K14Q33B  C2014 08 21.38191 21 56 05.642-03 39 31.28         21.1 wLEQ024F51
         K14Q33B  C2014 08 21.39485 21 56 11.846-03 39 09.15         20.9 wLEQ024F51
         K14Q33B |C2014 08 22.24405 22 03 39.88 -03 12 29.2          20.6 VuEQ024807
         K14Q33B |C2014 08 22.25300 22 03 44.35 -03 12 13.3          20.9 VuEQ024807
         K14Q33B |C2014 08 22.26195 22 03 48.88 -03 11 56.6          20.8 VuEQ024807
    
    Observer details:
    807 Cerro Tololo.  Observers T. Linder, R. Holmes.  0.41-m f/11
        Ritchey-Chretien + CCD.
    F51 Pan-STARRS 1, Haleakala.  Observers N. Primak, A. Schultz, T. Goggia,
        M. Willman.  Measurers B. Bolin, K. Chambers, S. Chastel, L. Denneau,
        H. Flewelling, M. Huber, E. Magnier, E. Schunova, R. Wainscoat, C. Waters.
        1.8-m Ritchey-Chretien + CCD.
    
    Orbital elements:
    2014 QB33                                                Earth MOID = 0.0700 AU
    Epoch 2014 Dec. 9.0 TT = JDT 2457000.5                  MPC
    M  29.86967              (2000.0)            P               Q
    n   0.31432303     Peri.  176.72545     +0.96023186     +0.27910625
    a   2.1423245      Node   167.06043     -0.25690762     +0.89359428
    e   0.4971893      Incl.    1.88895     -0.10933092     +0.35155223
    P   3.14           H   25.6           G   0.15           U   7
    Residuals in seconds of arc
    140820 F51  0.0   0.1-    140820 F51  0.0   0.1+    140821 F51  0.2+  0.1+
    140820 F51  0.1+  0.1-    140820 F51  0.1+  0.1+    140821 F51  0.2-  0.2-
    140820 F51  0.3-  0.1-    140820 F51  0.4+  0.1+    140822 807  0.0   0.1+
    140820 F51  0.3-  0.2-    140821 F51  0.1-  0.1+    140822 807  0.3-  0.2-
    140820 F51  0.0   0.2+    140821 F51  0.0   0.2-    140822 807  0.2+  0.3+
    
    Ephemeris:
    2014 QB33                a,e,i = 2.14, 0.50, 2                   q = 1.0772
    Date    TT    R. A. (2000) Decl.     Delta      r     Elong.  Phase     V
    2014 07 23    19 48 41.7 -11 27 20   0.1757  1.1894   170.1     8.4    22.8
    ...
    2014 08 07    20 27 04.3 -08 41 25   0.1165  1.1282   167.5    11.2    21.9
    ...
    2014 08 15    21 07 52.5 -06 20 04   0.09300 1.1044   169.3     9.8    21.3
    ...
    2014 08 21    21 52 45.0 -03 49 48   0.08024 1.0911   171.4     8.0    20.9
    2014 08 22    22 01 30.0 -03 20 39   0.07863 1.0894   171.4     8.0    20.8
    2014 08 23    22 10 35.3 -02 50 25   0.07718 1.0877   171.2     8.2    20.8
    ...
    2014 08 29    23 10 25.1 +00 25 17   0.07226 1.0802   165.6    13.4    20.8
    ...
    2014 09 06    00 30 40.8 +04 24 47   0.07612 1.0772   154.3    23.9    21.3
    ...
    2014 09 21    02 06 54.9 +07 54 27   0.1065  1.0932   145.2    31.6    22.3
    
    A. U. Tomatic                (C) Copyright 2014 MPC           M.P.E.C. 2014-Q24
    

    Read MPEC 2014-Q23 Read MPEC 2014-Q25


    MPEC number:

    Enter an MPEC number in one of the following forms:

    • 1997-B01 (the full form)
    • J97B01 (the packed version of the full form)
    • B01 (the abbreviated form)